Location: Newark
(7.0858°N, 171.3717°E)
Time: 05:07:23
(UTC+00:00)

Vanguard 2 - Pass Details

Date: 01 December 2020
Orbit: 553 x 2937 km, 32.9° (Epoch: 26 January)

Event Time Altitude Azimuth Distance (km) Brightness Sun altitude
Rises 18:31:58 0° 239° (WSW) 6,423 11.9 -0.8°
Reaches altitude 10° 18:36:42 10° 241° (WSW) 5,143 11.4 0.3°
Maximum altitude 18:50:40 73° 324° (NW) 1,780 9.3 3.5°
Drops below altitude 10° 18:58:51 10° 49° (NE) 3,156 11.1 5.4°
Sets 19:01:06 0° 51° (NE) 3,877 11.5 5.9°
